Home > Weather > Rishon LeZion > Past weeks

Flag for Israel Past Weather in Rishon LeZion, Israel — Yesterday and Last 2 Weeks

Now
79 °F

Passing clouds.


Feels Like: 81 °F
Forecast: 76 / 84 °F
Wind: 7 mph from West

Location: Ben Gurion International Airport

Current Time: Jun 27, 2016 at 11:33:52 PM

Latest Report: Jun 27, 2016 at 10:50 PM


Visibility: N/A

Pressure: 29.80 "Hg

Humidity: 74%

Dew Point: 70 °F

Location of Rishon LeZionLocation

Past Weather in Rishon LeZion — Graph

°F

Rishon LeZion Temperature Yesterday

Maximum temperature yesterday: 91 °F (at 1:50 PM)
Minimum temperature yesterday: 77 °F (at 1:20 AM)
Average temperature yesterday: 83 °F

High & Low Weather Summary for the Past Weeks

 TemperatureHumidityPressure
High97 °F (Jun 14, 3:50 PM)94% (Jun 20, 4:20 AM)29.89 "Hg (Jun 20, 4:20 AM)
Low66 °F (Jun 13, 6:20 AM)20% (Jun 14, 4:50 PM)29.68 "Hg (Jun 24, 3:20 PM)
Average82 °F62%29.78 "Hg
* Reported Jun 12 10:20 PM — Jun 27 10:20 PM, Rishon LeZion, Weather by CustomWeather, © 2016

Note: Actual official high and low records may vary slightly from our data, if they occured in-between our weather recording intervals... More about our weather records

Advertising

Rishon LeZion Weather History for the Previous 24 Hours

Scroll right to see more
 ConditionsComfort  
Time TempWeatherWind HumidityBarometerVisibility
10:20 PM
Mon, Jun 27
79 °FPassing clouds.6 mph74%29.80 "HgN/A
9:50 PM81 °FPassing clouds.6 mph70%29.80 "HgN/A
9:20 PM81 °FPassing clouds.9 mph70%29.77 "HgN/A
8:50 PM81 °FPassing clouds.9 mph70%29.77 "HgN/A
8:20 PM81 °FPassing clouds.9 mph70%29.77 "HgN/A
7:50 PM81 °FPassing clouds.7 mph70%29.77 "HgN/A
7:20 PM82 °FPassing clouds.10 mph66%29.77 "HgN/A
6:50 PM82 °FPassing clouds.10 mph66%29.77 "HgN/A
6:20 PM84 °FPassing clouds.12 mph62%29.77 "HgN/A
5:50 PM86 °FPassing clouds.13 mph59%29.77 "HgN/A
5:20 PM86 °FPassing clouds.14 mph59%29.77 "HgN/A
4:50 PM86 °FPassing clouds.13 mph55%29.77 "HgN/A
4:20 PM86 °FPassing clouds.14 mph59%29.77 "HgN/A
3:50 PM86 °FPassing clouds.13 mph59%29.77 "HgN/A
3:20 PM86 °FPassing clouds.14 mph59%29.77 "HgN/A
2:50 PM88 °FPassing clouds.14 mph52%29.77 "HgN/A
2:20 PM88 °FPassing clouds.14 mph55%29.77 "HgN/A
1:50 PM88 °FPassing clouds.14 mph55%29.80 "HgN/A
1:20 PM88 °FPassing clouds.12 mph59%29.80 "HgN/A
12:50 PM88 °FSunny.10 mph55%29.80 "Hg10 mi
12:20 PM88 °FSunny.13 mph55%29.80 "Hg10 mi
11:50 AM88 °FSunny.14 mph55%29.80 "Hg10 mi
11:20 AM90 °FSunny.13 mph52%29.80 "Hg10 mi
10:50 AM88 °FSunny.10 mph55%29.80 "Hg10 mi
10:20 AM88 °FSunny.6 mph52%29.80 "Hg10 mi
9:50 AM86 °FSunny.3 mph59%29.80 "Hg10 mi
9:20 AM84 °FPassing clouds.3 mph66%29.80 "HgN/A
8:50 AM84 °FPassing clouds.2 mph66%29.80 "HgN/A
8:20 AM84 °FScattered clouds.2 mph70%29.83 "HgN/A
7:50 AM81 °FScattered clouds.3 mph79%29.83 "HgN/A
7:20 AM79 °FPassing clouds.5 mph84%29.80 "Hg6 mi
6:50 AM79 °FPassing clouds.5 mph84%29.80 "Hg6 mi
6:20 AM77 °FPassing clouds.5 mph89%29.80 "Hg5 mi
5:50 AM77 °FPassing clouds.5 mph89%29.80 "Hg5 mi
5:20 AM77 °FPassing clouds.5 mph89%29.80 "HgN/A
4:50 AM77 °FPassing clouds.5 mph89%29.80 "HgN/A
4:20 AM77 °FPassing clouds.2 mph89%29.80 "HgN/A
3:50 AM77 °FPassing clouds.3 mph89%29.80 "HgN/A
3:20 AM77 °FPassing clouds.3 mph89%29.80 "HgN/A
2:50 AM77 °FPassing clouds.3 mph89%29.80 "HgN/A
2:20 AM77 °FPassing clouds.3 mph89%29.80 "HgN/A
1:50 AM79 °FClear.2 mph84%29.80 "Hg10 mi
1:20 AM79 °FClear.2 mph84%29.80 "Hg10 mi
12:50 AM81 °FClear.3 mph79%29.80 "Hg10 mi
12:20 AM79 °FClear.2 mph84%29.80 "Hg10 mi
11:50 PM
Sun, Jun 26
79 °FClear.2 mph84%29.83 "Hg10 mi
11:20 PM81 °FClear.5 mph79%29.83 "Hg10 mi
Weather by CustomWeather, © 2016

See weather overviewHow to use our weather pages